Terminal Aerodrome Forecast
Issued by NWS Mobile, AL

Home | Current Version | Previous Version | Text Only | Print | Product List | Glossary On
Versions: 1 2 3 4 5 6 7 8 9 10 11 12 13 14 15 16 17 18 19 20 21 22 23 24 25 26 27 28 29 30 31 32 33 34 35 36 37 38 39 40 41
000
FTUS44 KMOB 292320
TAFMOB
TAF
KMOB 292320Z 3000/3024 15007KT P6SM FEW035
     FM300600 00000KT P6SM SCT250
      TEMPO 3010/3013 4SM BR
     FM301500 15005KT P6SM SCT050=

USA.gov is the U.S. government's official web portal to all federal, state and local government web resources and services.